This demonstration page uses our WeatherBlox Daily Observations layout. Learn more.

38.89511, -77.03637

Hourly Observations for December 31, 2016

Temp ( °F °C ) Dew Point ( °F °C ) Humidity (%) Winds ( mph kmh ) Pressure ( in mb ) Visibility ( mi km ) Precip ( " mm )
12:52 am 00:52 Clear 32 0 19 -7.2 59 59 SW 5 7 30.14 1021 10 16.0934 0 0
1:52 am 01:52 Clear 31 -0.6 22 -5.6 69 69 SSW 9 15 30.15 1021 10 16.0934 0 0
2:52 am 02:52 Clear 29 -1.7 22 -5.6 75 75 SW 5 7 30.16 1021 10 16.0934 0 0
3:52 am 03:52 Clear 29 -1.7 20 -6.7 69 69 SW 5 7 30.17 1022 10 16.0934 0 0
4:52 am 04:52 Partly Cloudy 30 -1.1 19 -7.2 64 64 SSW 3 6 30.17 1022 10 16.0934 0 0
5:52 am 05:52 Mostly Cloudy 31 -0.6 20 -6.7 64 64 S 6 9 30.17 1022 10 16.0934 0 0
6:52 am 06:52 Mostly Cloudy 30 -1.1 20 -6.7 66 66 SSW 3 6 30.18 1022 10 16.0934 0 0
7:52 am 07:52 Mostly Cloudy 31 -0.6 24 -4.4 76 76 S 8 13 30.18 1022 10 16.0934 0 0
8:52 am 08:52 Mostly Cloudy 35 1.7 24 -4.4 64 64 S 10 17 30.17 1022 10 16.0934 0 0
9:52 am 09:52 Mostly Cloudy 37 2.8 23 -5 57 57 S 13 20 30.16 1021 10 16.0934 0 0
10:52 am 10:52 Mostly Cloudy 40 4.4 22 -5.6 49 49 S 14 22 30.13 1020 10 16.0934 0 0
11:52 am 11:52 Mostly Cloudy 43 6.1 21 -6.1 42 42 SSW 22 35 30.09 1019 10 16.0934 0 0
12:52 pm 12:52 Mostly Cloudy 46 7.8 21 -6.1 37 37 SSW 20 31 30.06 1018 10 16.0934 0 0
1:52 pm 13:52 Mostly Cloudy 49 9.4 20 -6.7 32 32 SSW 26 43 30.02 1017 10 16.0934 0 0
2:39 pm 14:39 Mostly Cloudy 48 8.9 21 -6.1 34 34 SSW 20 31 30 1016 10 16.0934 0 0
2:52 pm 14:52 Cloudy 48 8.9 21 -6.1 34 34 SSW 18 30 30.01 1016 10 16.0934 0 0
3:52 pm 15:52 Mostly Cloudy 48 8.9 21 -6.1 34 34 S 17 28 29.98 1015 10 16.0934 0 0
4:52 pm 16:52 Cloudy 48 9 21 -6 34 34 SSW 18 30 30 1016 10 16.0934 0 0
5:52 pm 17:52 Cloudy 48 8.9 22 -5.6 36 36 SSW 14 22 29.99 1016 10 16.0934 0 0
6:52 pm 18:52 Cloudy 48 8.9 22 -5.6 36 36 S 18 30 29.98 1015 10 16.0934 0 0
7:52 pm 19:52 Cloudy with Light Rain 47 8.3 24 -4.4 41 41 SSW 20 31 29.97 1015 10 16.0934 0 0.0254
8:52 pm 20:52 Cloudy 48 8.9 22 -5.6 36 36 SSW 16 26 29.96 1015 10 16.0934 0 0.0254
9:52 pm 21:52 Cloudy 47 8.3 23 -5 39 39 SSW 14 22 29.96 1015 10 16.0934 0 0
10:52 pm 22:52 Mostly Cloudy 46 7.8 23 -5 40 40 SSW 13 20 29.97 1015 10 16.0934 0 0
11:52 pm 23:52 Mostly Clear 45 7.2 22 -5.6 40 40 SSW 13 20 29.97 1015 10 16.0934 0 0

Powered by AerisWeather